Location: Santa Barbara
(34.4500°N, 119.7700°W)
Time: 13:35:19
(UTC-07:00)

Cosmos 1892 Rocket - Visible Passes

Search period start: 25 July 2014 00:00
Search period end: 04 August 2014 00:00
Orbit: 609 x 635 km, 82.5° (Epoch: 25 July)

Date Brightness Start Highest point End Pass type
(mag) Time Alt. Az. Time Alt. Az. Time Alt. Az.
25 Jul 5.1 21:12:09 10° NNE 21:15:29 20° ENE 21:16:49 18° E visible
25 Jul 5.2 22:49:32 10° NNW 22:53:21 28° W 22:54:02 27° WSW visible
26 Jul 4.2 21:29:35 10° N 21:33:48 39° E 21:35:10 31° ESE visible
26 Jul 6.1 23:08:56 10° NW 23:11:17 14° W 23:12:24 13° WSW visible
27 Jul 3.5 21:47:30 10° N 21:52:00 81° E 21:53:33 41° SSE visible
28 Jul 5.6 20:30:16 10° NE 20:31:56 12° ENE 20:33:36 10° E visible
28 Jul 4.4 22:05:48 10° NNW 22:10:07 48° W 22:11:57 30° SSW visible
29 Jul 4.9 20:46:46 10° NNE 20:50:21 23° ENE 20:53:10 13° ESE visible
29 Jul 5.6 22:24:32 10° NW 22:28:08 24° W 22:30:24 17° SW visible
30 Jul 4.0 21:04:20 10° N 21:08:39 45° E 21:11:39 18° SSE visible
30 Jul 6.4 22:44:17 10° WNW 22:46:04 12° W 22:47:50 10° WSW visible
31 Jul 3.6 21:22:20 10° N 21:26:50 87° W 21:30:10 18° S visible
01 Aug 4.7 21:40:42 10° NNW 21:44:56 42° W 21:48:44 12° SSW visible
02 Aug 4.7 20:21:26 10° NNE 20:25:13 26° ENE 20:28:58 10° SE visible
02 Aug 5.9 21:59:34 10° NW 22:02:55 21° W 22:06:15 10° SW visible
03 Aug 3.8 20:39:06 10° N 20:43:29 53° E 20:47:49 10° SSE visible
03 Aug 6.7 22:20:07 10° WNW 22:20:49 10° W 22:21:32 10° W visible
